星链-1231 (STARLINK-1231 )

导读

STARLINK-1231是美国太空探索技术公司(SpaceX)星链(Starlink)卫星互联网项目的一颗卫星,于2020年2月17日发射,属于星链项目早期部署的卫星之一,主要用于为全球提供高速互联网接入服务,目前该卫星已在近地轨道运行多年,服务于星链星座的全球网络覆盖。

基本信息
目录编号:
45212
目录名称:
STARLINK-1231
国际标识:
2020-012AL
轨道中心:
EARTH
卫星名称:
星链-1231
卫星全名:
星链-1231 (STARLINK-1231 )
卫星状态:
在轨 (已飞行2308 天)
发射日期:
2020-02-17 UTC
国别 :
美国 (US)
星等 :
--
轨道信息
数据来源 国际轨道数据
星历时间: 2026-06-12T00:04:23+0800
1天前
查看轨道信息
半长轴: 6859.584km
偏心率: 0.0002568
轨道倾角: 53.038°
近地点辐角 71.390°
升交点赤经 301.615°
平近点角 288.738°
近地点: 479.685km
远地点: 483.209km
周期: 94.234分钟
每日圈数: 15.281153
详细信息
固有亮度:
5
最大亮度:
2.5
卫星平台:
Starlink V1.0
覆盖范围:
全球
运营商:
太空探索技术公司
运营商所在国:
美国
制造商(研发单位):
太空探索技术公司
制造商所在国:
美国
使用方式:
暂无
卫星简介
星链(Starlink)计划是由太空探索技术公司(SpaceX)提出的一个巨型低轨卫星互联网星座项目,计划在2019年至2024年间在太空搭建由约1.2万颗卫星组成的“星链”网络,其中1584颗将部署在地球上空550千米处的近地轨道,并从2020年开始工作。该卫星仍在工作。
2D轨道图
3D轨道图
轨道高度分析图
轨道倾角分析图
轨道综合分析图
查看轨道综合分析图